This is the latest recevied weather packets stored in our database for station/object KF4UQS-14. If no packets are shown the sender has not sent any weather packets the latest 10 day(s).
| Time | Temp. | Humidity | Pressure | Rain* | Wind** | Luminosity | Snow |
|---|---|---|---|---|---|---|---|
| 1778293688 | 13.33° C | 76% | 1016.9 hPa | 0 mm | - | 0 W/m² | - |
| 1778293386 | 13.89° C | 75% | 1016.8 hPa | 0 mm | - | 0 W/m² | - |
| 1778293083 | 13.89° C | 74% | 1016.8 hPa | 0 mm | - | 0 W/m² | - |
| 1778292780 | 13.89° C | 73% | 1017 hPa | 0 mm | - | 0 W/m² | - |
| 1778292477 | 13.33° C | 73% | 1016.8 hPa | 0 mm | - | 0 W/m² | - |
| 1778292175 | 13.33° C | 73% | 1017 hPa | 0 mm | - | 0 W/m² | - |
| 1778291873 | 13.33° C | 74% | 1016.7 hPa | 0 mm | - | 0 W/m² | - |
| 1778291571 | 13.89° C | 71% | 1016.6 hPa | 0 mm | - | 0 W/m² | - |
| 1778291267 | 13.33° C | 71% | 1016.7 hPa | 0 mm | - | 0 W/m² | - |
| 1778290964 | 13.33° C | 71% | 1016.4 hPa | 0 mm | - | 0 W/m² | - |
| 1778290660 | 12.78° C | 72% | 1016.5 hPa | 0 mm | - | 0 W/m² | - |
| 1778290356 | 13.33° C | 72% | 1016.3 hPa | 0 mm | - | 0 W/m² | - |
| 1778290053 | 13.33° C | 75% | 1016.3 hPa | 0 mm | - | 0 W/m² | - |
| 1778289750 | 13.33° C | 71% | 1016.3 hPa | 0 mm | - | 0 W/m² | - |
| 1778289447 | 13.33° C | 72% | 1016.2 hPa | 0 mm | - | 0 W/m² | - |
| 1778289145 | 13.33° C | 72% | 1016.2 hPa | 0 mm | - | 0 W/m² | - |
| 1778288843 | 13.33° C | 72% | 1016.1 hPa | 0 mm | - | 0 W/m² | - |
| 1778288539 | 13.89° C | 72% | 1016.1 hPa | 0 mm | - | 0 W/m² | - |
| 1778288236 | 13.89° C | 69% | 1016.2 hPa | 0 mm | - | 0 W/m² | - |
| 1778287933 | 13.89° C | 72% | 1016.1 hPa | 0 mm | - | 0 W/m² | - |
| 1778287628 | 13.89° C | 73% | 1015.9 hPa | 0 mm | - | 0 W/m² | - |
| 1778287326 | 13.89° C | 74% | 1015.9 hPa | 0 mm | - | 0 W/m² | - |
| 1778287024 | 13.89° C | 73% | 1016 hPa | 0 mm | - | 0 W/m² | - |
| 1778286721 | 13.89° C | 73% | 1016.2 hPa | 0 mm | - | 0 W/m² | - |
| 1778286418 | 13.33° C | 74% | 1015.8 hPa | 0 mm | - | 0 W/m² | - |
* Rain latest hour (hover to see other rain measurements)
** Current wind speed in m/s (hover to see current wind gust speed)